Location: Praha
(50.0830°N, 14.4670°E)
Time: 21:43:19
(UTC+01:00)

ISS - Pass Details

Date: 19 January 2022
Orbit: 413 x 422 km, 51.6° (Epoch: 20 January)

Event Time Altitude Azimuth Distance (km) Brightness Sun altitude
Rises 17:26:05 0° 183° (S) 2,335 0.4 -8.2°
Enters shadow 17:31:45 - 109° (ESE) 1,718 -1.1 -9.1°
Exits shadow 18:07:02 -68° 41° (NE) 12,300 3.6 -14.5°
Reaches altitude 10° 19:03:04 10° 222° (SW) 1,481 -0.4 -23.3°
